Time,TemperatureF,DewpointF,PressureIn,WindDirection,WindDirectionDegrees,WindSpeedMPH,WindSpeedGustMPH,Humidity,HourlyPrecipIn,Conditions,Clouds,dailyrainin,SoftwareType,DateUTC
2013-04-22 00:00:00,37.9,31.4,30.43,East,84,3.0,7.0,77,0.00,,---,0.00,VWS V14.01,2013-04-22 04:00:00,
2013-04-22 00:01:00,37.9,31.4,30.43,ENE,64,1.0,3.0,77,0.00,,---,0.00,VWS V14.01,2013-04-22 04:01:00,
2013-04-22 00:06:00,37.6,31.4,30.43,NE,44,3.0,4.0,78,0.00,,---,0.00,VWS V14.01,2013-04-22 04:06:00,
2013-04-22 00:11:00,37.4,31.2,30.43,ESE,121,1.0,4.0,78,0.00,,---,0.00,VWS V14.01,2013-04-22 04:11:00,
2013-04-22 00:16:00,37.2,31.0,30.43,East,84,2.0,4.0,78,0.00,,---,0.00,VWS V14.01,2013-04-22 04:16:00,
2013-04-22 00:21:00,37.1,30.9,30.43,SSW,193,2.0,4.0,78,0.00,,---,0.00,VWS V14.01,2013-04-22 04:21:00,
2013-04-22 00:26:00,37.0,31.1,30.43,ENE,63,1.0,5.0,79,0.00,,---,0.00,VWS V14.01,2013-04-22 04:26:00,
2013-04-22 00:30:00,36.9,31.0,30.43,ENE,65,0.0,5.0,79,0.00,,---,0.00,VWS V14.01,2013-04-22 04:30:00,
2013-04-22 00:31:00,36.8,30.9,30.43,ENE,64,2.0,4.0,79,0.00,,---,0.00,VWS V14.01,2013-04-22 04:31:00,
2013-04-22 00:36:00,36.7,30.5,30.43,ESE,119,1.0,5.0,78,0.00,,---,0.00,VWS V14.01,2013-04-22 04:36:00,
2013-04-22 00:42:00,36.6,30.4,30.43,SSE,163,0.0,5.0,78,0.00,,---,0.00,VWS V14.01,2013-04-22 04:42:00,
2013-04-22 00:47:00,36.5,30.6,30.43,East,83,1.0,5.0,79,0.00,,---,0.00,VWS V14.01,2013-04-22 04:47:00,
2013-04-22 00:52:00,36.4,30.5,30.42,ENE,64,0.0,5.0,79,0.00,,---,0.00,VWS V14.01,2013-04-22 04:52:00,
2013-04-22 00:57:00,36.3,30.1,30.42,ENE,59,0.0,5.0,78,0.00,,---,0.00,VWS V14.01,2013-04-22 04:57:00,
2013-04-22 01:00:00,36.2,30.0,30.42,ESE,115,0.0,5.0,78,0.00,,---,0.00,VWS V14.01,2013-04-22 05:00:00,
2013-04-22 01:02:00,36.1,29.9,30.42,ENE,68,1.0,1.0,78,0.00,,---,0.00,VWS V14.01,2013-04-22 05:02:00,
2013-04-22 01:07:00,36.1,29.9,30.42,ENE,71,0.0,4.0,78,0.00,,---,0.00,VWS V14.01,2013-04-22 05:07:00,
2013-04-22 01:12:00,36.0,29.8,30.42,NE,53,2.0,5.0,78,0.00,,---,0.00,VWS V14.01,2013-04-22 05:12:00,
2013-04-22 01:17:00,35.9,29.7,30.42,East,98,0.0,5.0,78,0.00,,---,0.00,VWS V14.01,2013-04-22 05:17:00,
2013-04-22 01:22:00,35.8,29.6,30.42,ENE,71,1.0,5.0,78,0.00,,---,0.00,VWS V14.01,2013-04-22 05:22:00,
2013-04-22 01:27:00,35.7,29.5,30.42,ENE,60,4.0,5.0,78,0.00,,---,0.00,VWS V14.01,2013-04-22 05:27:00,
2013-04-22 01:30:00,35.6,29.4,30.42,ESE,107,1.0,5.0,78,0.00,,---,0.00,VWS V14.01,2013-04-22 05:30:00,
2013-04-22 01:32:00,35.6,29.4,30.42,East,98,1.0,2.0,78,0.00,,---,0.00,VWS V14.01,2013-04-22 05:32:00,
2013-04-22 01:37:00,35.5,29.3,30.42,East,84,0.0,3.0,78,0.00,,---,0.00,VWS V14.01,2013-04-22 05:37:00,
2013-04-22 01:42:00,35.3,29.5,30.42,East,80,0.0,3.0,79,0.00,,---,0.00,VWS V14.01,2013-04-22 05:42:00,
2013-04-22 01:47:00,35.2,29.4,30.42,ESE,105,2.0,3.0,79,0.00,,---,0.00,VWS V14.01,2013-04-22 05:47:00,
2013-04-22 01:52:00,35.0,29.2,30.41,ENE,63,0.0,4.0,79,0.00,,---,0.00,VWS V14.01,2013-04-22 05:52:00,
2013-04-22 01:57:00,35.0,29.2,30.41,East,91,1.0,4.0,79,0.00,,---,0.00,VWS V14.01,2013-04-22 05:57:00,
2013-04-22 02:00:00,34.9,29.1,30.41,ESE,102,0.0,4.0,79,0.00,,---,0.00,VWS V14.01,2013-04-22 06:00:00,
2013-04-22 02:02:00,34.9,29.4,30.41,East,101,0.0,0.0,80,0.00,,---,0.00,VWS V14.01,2013-04-22 06:02:00,
2013-04-22 02:07:00,34.7,29.2,30.41,ENE,74,1.0,1.0,80,0.00,,---,0.00,VWS V14.01,2013-04-22 06:07:00,
2013-04-22 02:12:00,34.6,29.1,30.40,ESE,105,0.0,2.0,80,0.00,,---,0.00,VWS V14.01,2013-04-22 06:12:00,
2013-04-22 02:17:00,34.5,29.0,30.40,East,89,0.0,4.0,80,0.00,,---,0.00,VWS V14.01,2013-04-22 06:17:00,
2013-04-22 02:22:00,34.4,28.9,30.40,SSE,153,0.0,4.0,80,0.00,,---,0.00,VWS V14.01,2013-04-22 06:22:00,
2013-04-22 02:27:00,34.4,28.9,30.40,ENE,76,0.0,4.0,80,0.00,,---,0.00,VWS V14.01,2013-04-22 06:27:00,
2013-04-22 02:30:00,34.4,29.2,30.40,NE,53,1.0,4.0,81,0.00,,---,0.00,VWS V14.01,2013-04-22 06:30:00,
2013-04-22 02:32:00,34.3,29.1,30.40,NE,53,0.0,1.0,81,0.00,,---,0.00,VWS V14.01,2013-04-22 06:32:00,
2013-04-22 02:37:00,34.3,29.1,30.40,East,94,5.0,5.0,81,0.00,,---,0.00,VWS V14.01,2013-04-22 06:37:00,
2013-04-22 02:42:00,34.4,28.9,30.40,ESE,103,0.0,5.0,80,0.00,,---,0.00,VWS V14.01,2013-04-22 06:42:00,
2013-04-22 02:47:00,34.2,28.7,30.40,ENE,59,0.0,5.0,80,0.00,,---,0.00,VWS V14.01,2013-04-22 06:47:00,
2013-04-22 02:52:00,34.0,28.8,30.39,ESE,110,0.0,5.0,81,0.00,,---,0.00,VWS V14.01,2013-04-22 06:52:00,
2013-04-22 02:57:00,33.8,28.6,30.39,ESE,102,0.0,5.0,81,0.00,,---,0.00,VWS V14.01,2013-04-22 06:57:00,
2013-04-22 03:00:00,33.7,28.8,30.39,ESE,102,0.0,5.0,82,0.00,,---,0.00,VWS V14.01,2013-04-22 07:00:00,
2013-04-22 03:02:00,33.6,28.7,30.39,ESE,122,0.0,1.0,82,0.00,,---,0.00,VWS V14.01,2013-04-22 07:02:00,
2013-04-22 03:07:00,33.6,28.7,30.39,ESE,122,0.0,1.0,82,0.00,,---,0.00,VWS V14.01,2013-04-22 07:07:00,
2013-04-22 03:12:00,33.3,28.4,30.39,ESE,123,0.0,1.0,82,0.00,,---,0.00,VWS V14.01,2013-04-22 07:12:00,
2013-04-22 03:17:00,33.2,28.6,30.39,ENE,61,2.0,3.0,83,0.00,,---,0.00,VWS V14.01,2013-04-22 07:17:00,
2013-04-22 03:22:00,33.3,28.7,30.39,ENE,75,1.0,4.0,83,0.00,,---,0.00,VWS V14.01,2013-04-22 07:22:00,
2013-04-22 03:27:00,33.3,28.7,30.39,ENE,76,0.0,4.0,83,0.00,,---,0.00,VWS V14.01,2013-04-22 07:27:00,
2013-04-22 03:30:00,33.2,28.6,30.39,ESE,107,0.0,4.0,83,0.00,,---,0.00,VWS V14.01,2013-04-22 07:30:00,
2013-04-22 03:32:00,33.1,28.5,30.39,ESE,106,1.0,1.0,83,0.00,,---,0.00,VWS V14.01,2013-04-22 07:32:00,
2013-04-22 03:37:00,32.9,28.3,30.39,ESE,103,0.0,1.0,83,0.00,,---,0.00,VWS V14.01,2013-04-22 07:37:00,
2013-04-22 03:42:00,32.8,28.2,30.38,ESE,103,0.0,1.0,83,0.00,,---,0.00,VWS V14.01,2013-04-22 07:42:00,
2013-04-22 03:47:00,32.4,28.1,30.38,ENE,59,0.0,1.0,84,0.00,,---,0.00,VWS V14.01,2013-04-22 07:47:00,
2013-04-22 03:52:00,32.3,28.3,30.38,ENE,60,0.0,1.0,85,0.00,,---,0.00,VWS V14.01,2013-04-22 07:52:00,
2013-04-22 03:57:00,32.0,28.0,30.38,ENE,60,0.0,1.0,85,0.00,,---,0.00,VWS V14.01,2013-04-22 07:57:00,
2013-04-22 04:00:00,31.8,27.8,30.38,ENE,59,0.0,1.0,85,0.00,,---,0.00,VWS V14.01,2013-04-22 08:00:00,
2013-04-22 04:02:00,31.7,27.7,30.38,ENE,60,0.0,0.0,85,0.00,,---,0.00,VWS V14.01,2013-04-22 08:02:00,
2013-04-22 04:07:00,31.5,27.8,30.38,ENE,60,0.0,0.0,86,0.00,,---,0.00,VWS V14.01,2013-04-22 08:07:00,
2013-04-22 04:12:00,31.4,27.7,30.37,ENE,60,0.0,0.0,86,0.00,,---,0.00,VWS V14.01,2013-04-22 08:12:00,
2013-04-22 04:17:00,31.3,27.9,30.37,ENE,60,0.0,0.0,87,0.00,,---,0.00,VWS V14.01,2013-04-22 08:17:00,
2013-04-22 04:22:00,31.4,28.0,30.37,North,352,0.0,1.0,87,0.00,,---,0.00,VWS V14.01,2013-04-22 08:22:00,
2013-04-22 04:27:00,31.2,27.8,30.37,North,352,0.0,1.0,87,0.00,,---,0.00,VWS V14.01,2013-04-22 08:27:00,
2013-04-22 04:30:00,31.1,27.7,30.37,North,352,0.0,1.0,87,0.00,,---,0.00,VWS V14.01,2013-04-22 08:30:00,
2013-04-22 04:32:00,31.0,27.6,30.37,North,352,0.0,0.0,87,0.00,,---,0.00,VWS V14.01,2013-04-22 08:32:00,
2013-04-22 04:37:00,31.0,27.9,30.36,East,84,0.0,1.0,88,0.00,,---,0.00,VWS V14.01,2013-04-22 08:37:00,
2013-04-22 04:42:00,31.2,28.1,30.37,ENE,75,0.0,1.0,88,0.00,,---,0.00,VWS V14.01,2013-04-22 08:42:00,
2013-04-22 04:47:00,31.4,28.3,30.36,East,94,0.0,2.0,88,0.00,,---,0.00,VWS V14.01,2013-04-22 08:47:00,
2013-04-22 04:52:00,31.2,27.8,30.36,East,94,0.0,2.0,87,0.00,,---,0.00,VWS V14.01,2013-04-22 08:52:00,
2013-04-22 04:57:00,30.8,27.4,30.36,East,94,0.0,2.0,87,0.00,,---,0.00,VWS V14.01,2013-04-22 08:57:00,
2013-04-22 05:00:00,30.6,27.2,30.36,East,94,0.0,2.0,87,0.00,,---,0.00,VWS V14.01,2013-04-22 09:00:00,
2013-04-22 05:02:00,30.4,27.3,30.36,East,94,0.0,0.0,88,0.00,,---,0.00,VWS V14.01,2013-04-22 09:02:00,
2013-04-22 05:07:00,30.3,27.5,30.36,East,94,0.0,0.0,89,0.00,,---,0.00,VWS V14.01,2013-04-22 09:07:00,
2013-04-22 05:12:00,30.5,27.6,30.36,East,94,0.0,0.0,89,0.00,,---,0.00,VWS V14.01,2013-04-22 09:12:00,
2013-04-22 05:17:00,30.8,28.0,30.36,NE,46,0.0,2.0,89,0.00,,---,0.00,VWS V14.01,2013-04-22 09:17:00,
2013-04-22 05:22:00,30.9,27.8,30.36,NE,51,0.0,2.0,88,0.00,,---,0.00,VWS V14.01,2013-04-22 09:22:00,
2013-04-22 05:27:00,30.8,27.7,30.36,NE,51,0.0,2.0,88,0.00,,---,0.00,VWS V14.01,2013-04-22 09:27:00,
2013-04-22 05:30:00,30.7,27.6,30.36,NE,51,0.0,2.0,88,0.00,,---,0.00,VWS V14.01,2013-04-22 09:30:00,
2013-04-22 05:33:00,30.6,27.5,30.36,NE,51,0.0,0.0,88,0.00,,---,0.00,VWS V14.01,2013-04-22 09:33:00,
2013-04-22 05:38:00,30.2,27.1,30.36,NE,51,0.0,0.0,88,0.00,,---,0.00,VWS V14.01,2013-04-22 09:38:00,
2013-04-22 05:43:00,29.8,26.7,30.36,NE,51,0.0,0.0,88,0.00,,---,0.00,VWS V14.01,2013-04-22 09:43:00,
2013-04-22 05:48:00,29.3,26.2,30.36,NE,51,0.0,0.0,88,0.00,,---,0.00,VWS V14.01,2013-04-22 09:48:00,
2013-04-22 05:53:00,29.2,26.6,30.36,NE,51,0.0,0.0,90,0.00,,---,0.00,VWS V14.01,2013-04-22 09:53:00,
2013-04-22 05:58:00,29.3,27.0,30.36,NE,51,0.0,0.0,91,0.00,,---,0.00,VWS V14.01,2013-04-22 09:58:00,
2013-04-22 06:00:00,29.3,27.0,30.36,NE,51,0.0,0.0,91,0.00,,---,0.00,VWS V14.01,2013-04-22 10:00:00,
2013-04-22 06:03:00,29.3,27.0,30.36,NE,51,0.0,0.0,91,0.00,,---,0.00,VWS V14.01,2013-04-22 10:03:00,
2013-04-22 06:08:00,29.2,26.9,30.36,NE,51,0.0,0.0,91,0.00,,---,0.00,VWS V14.01,2013-04-22 10:08:00,
2013-04-22 06:13:00,29.2,26.9,30.36,NE,51,0.0,0.0,91,0.00,,---,0.00,VWS V14.01,2013-04-22 10:13:00,
2013-04-22 06:18:00,29.0,26.7,30.36,NE,51,0.0,0.0,91,0.00,,---,0.00,VWS V14.01,2013-04-22 10:18:00,
2013-04-22 06:23:00,28.7,26.4,30.36,NE,51,0.0,0.0,91,0.00,,---,0.00,VWS V14.01,2013-04-22 10:23:00,
2013-04-22 06:28:00,28.5,26.2,30.36,NE,51,0.0,0.0,91,0.00,,---,0.00,VWS V14.01,2013-04-22 10:28:00,
2013-04-22 06:30:00,28.3,26.0,30.36,NE,51,0.0,0.0,91,0.00,,---,0.00,VWS V14.01,2013-04-22 10:30:00,
2013-04-22 06:33:00,28.2,25.9,30.36,NE,51,0.0,0.0,91,0.00,,---,0.00,VWS V14.01,2013-04-22 10:33:00,
2013-04-22 06:38:00,28.2,26.2,30.36,NE,51,0.0,0.0,92,0.00,,---,0.00,VWS V14.01,2013-04-22 10:38:00,
2013-04-22 06:43:00,28.4,26.6,30.36,NE,51,0.0,0.0,93,0.00,,---,0.00,VWS V14.01,2013-04-22 10:43:00,
2013-04-22 06:48:00,28.5,26.7,30.36,NE,51,0.0,0.0,93,0.00,,---,0.00,VWS V14.01,2013-04-22 10:48:00,
2013-04-22 06:53:00,28.4,26.6,30.36,NE,51,0.0,0.0,93,0.00,,---,0.00,VWS V14.01,2013-04-22 10:53:00,
2013-04-22 06:58:00,28.4,26.6,30.36,NE,51,0.0,0.0,93,0.00,,---,0.00,VWS V14.01,2013-04-22 10:58:00,
2013-04-22 07:00:00,28.6,26.8,30.36,NE,51,0.0,0.0,93,0.00,,---,0.00,VWS V14.01,2013-04-22 11:00:00,
2013-04-22 07:03:00,28.8,27.3,30.36,NE,51,0.0,0.0,94,0.00,,---,0.00,VWS V14.01,2013-04-22 11:03:00,
2013-04-22 07:08:00,29.0,27.5,30.36,NE,51,0.0,0.0,94,0.00,,---,0.00,VWS V14.01,2013-04-22 11:08:00,
2013-04-22 07:13:00,29.3,27.8,30.36,NE,51,0.0,0.0,94,0.00,,---,0.00,VWS V14.01,2013-04-22 11:13:00,
2013-04-22 07:18:00,29.4,27.9,30.36,NE,51,0.0,0.0,94,0.00,,---,0.00,VWS V14.01,2013-04-22 11:18:00,
2013-04-22 07:23:00,29.7,28.2,30.36,NE,51,0.0,1.0,94,0.00,,---,0.00,VWS V14.01,2013-04-22 11:23:00,
2013-04-22 07:28:00,29.9,28.1,30.36,NE,51,0.0,1.0,93,0.00,,---,0.00,VWS V14.01,2013-04-22 11:28:00,
2013-04-22 07:30:00,30.0,28.2,30.36,NE,51,0.0,1.0,93,0.00,,---,0.00,VWS V14.01,2013-04-22 11:30:00,
2013-04-22 07:33:00,30.1,28.3,30.36,NE,51,0.0,0.0,93,0.00,,---,0.00,VWS V14.01,2013-04-22 11:33:00,
2013-04-22 07:38:00,30.5,29.0,30.36,NE,53,0.0,1.0,94,0.00,,---,0.00,VWS V14.01,2013-04-22 11:38:00,
2013-04-22 07:43:00,31.0,29.2,30.36,NE,52,0.0,1.0,93,0.00,,---,0.00,VWS V14.01,2013-04-22 11:43:00,
2013-04-22 07:48:00,32.0,30.2,30.36,NE,53,0.0,1.0,93,0.00,,---,0.00,VWS V14.01,2013-04-22 11:48:00,
2013-04-22 07:53:00,33.1,31.0,30.36,SE,124,0.0,2.0,92,0.00,,---,0.00,VWS V14.01,2013-04-22 11:53:00,
2013-04-22 07:58:00,34.3,31.1,30.36,ENE,75,0.0,2.0,88,0.00,,---,0.00,VWS V14.01,2013-04-22 11:58:00,
2013-04-22 08:00:00,34.8,31.3,30.36,NNW,343,0.0,2.0,87,0.00,,---,0.00,VWS V14.01,2013-04-22 12:00:00,
2013-04-22 08:03:00,35.3,31.2,30.36,East,89,0.0,2.0,85,0.00,,---,0.00,VWS V14.01,2013-04-22 12:03:00,
2013-04-22 08:08:00,36.0,31.4,30.36,SSE,148,0.0,2.0,83,0.00,,---,0.00,VWS V14.01,2013-04-22 12:08:00,
2013-04-22 08:13:00,37.0,32.0,30.36,SE,129,1.0,2.0,82,0.00,,---,0.00,VWS V14.01,2013-04-22 12:13:00,
2013-04-22 08:18:00,37.5,32.2,30.36,ENE,63,2.0,3.0,81,0.00,,---,0.00,VWS V14.01,2013-04-22 12:18:00,
2013-04-22 08:23:00,38.0,32.4,30.36,NE,38,0.0,3.0,80,0.00,,---,0.00,VWS V14.01,2013-04-22 12:23:00,
2013-04-22 08:28:00,38.4,31.8,30.36,ENE,70,0.0,4.0,77,0.00,,---,0.00,VWS V14.01,2013-04-22 12:28:00,
2013-04-22 08:30:00,38.5,32.2,30.36,ENE,70,0.0,4.0,78,0.00,,---,0.00,VWS V14.01,2013-04-22 12:30:00,
2013-04-22 08:33:00,39.1,32.8,30.36,NNW,340,0.0,1.0,78,0.00,,---,0.00,VWS V14.01,2013-04-22 12:33:00,
2013-04-22 08:38:00,39.4,32.5,30.36,NNE,27,2.0,3.0,76,0.00,,---,0.00,VWS V14.01,2013-04-22 12:38:00,
2013-04-22 08:43:00,39.5,32.6,30.35,ENE,69,0.0,3.0,76,0.00,,---,0.00,VWS V14.01,2013-04-22 12:43:00,
2013-04-22 08:48:00,39.8,32.9,30.35,NE,49,1.0,3.0,76,0.00,,---,0.00,VWS V14.01,2013-04-22 12:48:00,
2013-04-22 08:53:00,40.4,33.8,30.35,ESE,120,0.0,3.0,77,0.00,,---,0.00,VWS V14.01,2013-04-22 12:53:00,
2013-04-22 08:58:00,41.4,33.8,30.35,ESE,111,0.0,3.0,74,0.00,,---,0.00,VWS V14.01,2013-04-22 12:58:00,
2013-04-22 09:00:00,41.7,33.3,30.35,NNW,345,1.0,3.0,72,0.00,,---,0.00,VWS V14.01,2013-04-22 13:00:00,
2013-04-22 09:03:00,42.1,33.7,30.35,North,360,1.0,1.0,72,0.00,,---,0.00,VWS V14.01,2013-04-22 13:03:00,
2013-04-22 09:08:00,42.5,33.8,30.35,NNE,13,1.0,2.0,71,0.00,,---,0.00,VWS V14.01,2013-04-22 13:08:00,
2013-04-22 09:13:00,43.0,33.9,30.35,NE,34,2.0,3.0,70,0.00,,---,0.00,VWS V14.01,2013-04-22 13:13:00,
2013-04-22 09:18:00,43.2,32.2,30.35,ENE,77,0.0,4.0,65,0.00,,---,0.00,VWS V14.01,2013-04-22 13:18:00,
2013-04-22 09:23:00,43.8,32.8,30.35,ESE,117,1.0,5.0,65,0.00,,---,0.00,VWS V14.01,2013-04-22 13:23:00,
2013-04-22 09:28:00,44.5,33.1,30.35,SE,131,3.0,5.0,64,0.00,,---,0.00,VWS V14.01,2013-04-22 13:28:00,
2013-04-22 09:30:00,44.7,33.7,30.35,East,82,1.0,5.0,65,0.00,,---,0.00,VWS V14.01,2013-04-22 13:30:00,
2013-04-22 09:33:00,44.9,33.5,30.35,ENE,72,3.0,5.0,64,0.00,,---,0.00,VWS V14.01,2013-04-22 13:33:00,
2013-04-22 09:38:00,45.2,33.4,30.35,ESE,121,1.0,5.0,63,0.00,,---,0.00,VWS V14.01,2013-04-22 13:38:00,
2013-04-22 09:43:00,45.7,34.2,30.35,SE,124,0.0,5.0,64,0.00,,---,0.00,VWS V14.01,2013-04-22 13:43:00,
2013-04-22 09:48:00,46.2,33.1,30.35,East,101,4.0,5.0,60,0.00,,---,0.00,VWS V14.01,2013-04-22 13:48:00,
2013-04-22 09:53:00,46.6,33.9,30.34,SE,127,2.0,6.0,61,0.00,,---,0.00,VWS V14.01,2013-04-22 13:53:00,
2013-04-22 09:58:00,46.9,33.8,30.34,East,98,3.0,6.0,60,0.00,,---,0.00,VWS V14.01,2013-04-22 13:58:00,
2013-04-22 10:00:00,47.1,34.4,30.34,SE,146,3.0,6.0,61,0.00,,---,0.00,VWS V14.01,2013-04-22 14:00:00,
2013-04-22 10:03:00,47.2,32.3,30.35,SE,143,3.0,5.0,56,0.00,,---,0.00,VWS V14.01,2013-04-22 14:03:00,
2013-04-22 10:08:00,47.4,33.0,30.34,East,89,1.0,5.0,57,0.00,,---,0.00,VWS V14.01,2013-04-22 14:08:00,
2013-04-22 10:13:00,48.0,33.5,30.34,SE,125,3.0,5.0,57,0.00,,---,0.00,VWS V14.01,2013-04-22 14:13:00,
2013-04-22 10:18:00,48.1,33.2,30.34,SSE,150,2.0,7.0,56,0.00,,---,0.00,VWS V14.01,2013-04-22 14:18:00,
2013-04-22 10:23:00,48.7,33.7,30.34,ESE,123,3.0,7.0,56,0.00,,---,0.00,VWS V14.01,2013-04-22 14:23:00,
2013-04-22 10:28:00,49.0,34.0,30.34,SSE,160,1.0,7.0,56,0.00,,---,0.00,VWS V14.01,2013-04-22 14:28:00,
2013-04-22 10:30:00,49.1,34.1,30.34,SE,138,5.0,7.0,56,0.00,,---,0.00,VWS V14.01,2013-04-22 14:30:00,
2013-04-22 10:33:00,49.3,32.9,30.34,SSE,158,4.0,6.0,53,0.00,,---,0.00,VWS V14.01,2013-04-22 14:33:00,
2013-04-22 10:38:00,49.2,34.2,30.34,South,171,3.0,7.0,56,0.00,,---,0.00,VWS V14.01,2013-04-22 14:38:00,
2013-04-22 10:43:00,49.6,34.1,30.34,ESE,119,2.0,7.0,55,0.00,,---,0.00,VWS V14.01,2013-04-22 14:43:00,
2013-04-22 10:48:00,50.0,34.5,30.34,SE,139,2.0,7.0,55,0.00,,---,0.00,VWS V14.01,2013-04-22 14:48:00,
2013-04-22 10:53:00,50.6,34.6,30.34,ESE,117,1.0,7.0,54,0.00,,---,0.00,VWS V14.01,2013-04-22 14:53:00,
2013-04-22 10:58:00,51.1,34.1,30.34,SE,142,4.0,8.0,52,0.00,,---,0.00,VWS V14.01,2013-04-22 14:58:00,
2013-04-22 11:00:00,51.2,34.7,30.34,ESE,110,2.0,8.0,53,0.00,,---,0.00,VWS V14.01,2013-04-22 15:00:00,
2013-04-22 11:03:00,51.5,34.5,30.34,SE,146,2.0,5.0,52,0.00,,---,0.00,VWS V14.01,2013-04-22 15:03:00,
2013-04-22 11:08:00,51.7,34.7,30.34,South,187,0.0,5.0,52,0.00,,---,0.00,VWS V14.01,2013-04-22 15:08:00,
2013-04-22 11:13:00,52.3,34.7,30.34,SSE,159,0.0,5.0,51,0.00,,---,0.00,VWS V14.01,2013-04-22 15:13:00,
2013-04-22 11:19:00,52.8,37.1,30.34,SSW,197,2.0,6.0,55,0.00,,---,0.00,VWS V14.01,2013-04-22 15:19:00,
2013-04-22 11:24:00,53.4,35.2,30.34,SE,142,5.0,6.0,50,0.00,,---,0.00,VWS V14.01,2013-04-22 15:24:00,
2013-04-22 11:29:00,53.3,35.2,30.34,SE,130,4.0,6.0,50,0.00,,---,0.00,VWS V14.01,2013-04-22 15:29:00,
2013-04-22 11:30:00,53.3,35.7,30.34,ESE,115,0.0,6.0,51,0.00,,---,0.00,VWS V14.01,2013-04-22 15:30:00,
2013-04-22 11:34:00,53.8,36.1,30.34,SSW,211,4.0,5.0,51,0.00,,---,0.00,VWS V14.01,2013-04-22 15:34:00,
2013-04-22 11:39:00,54.1,35.4,30.34,West,261,0.0,5.0,49,0.00,,---,0.00,VWS V14.01,2013-04-22 15:39:00,
2013-04-22 11:44:00,54.8,34.4,30.33,ESE,107,0.0,5.0,46,0.00,,---,0.00,VWS V14.01,2013-04-22 15:44:00,
2013-04-22 11:49:00,55.1,36.8,30.33,SE,142,3.0,6.0,50,0.00,,---,0.00,VWS V14.01,2013-04-22 15:49:00,
2013-04-22 11:54:00,55.5,36.2,30.33,ESE,116,5.0,6.0,48,0.00,,---,0.00,VWS V14.01,2013-04-22 15:54:00,
2013-04-22 11:59:00,55.5,36.2,30.33,ENE,67,1.0,6.0,48,0.00,,---,0.00,VWS V14.01,2013-04-22 15:59:00,
2013-04-22 12:00:00,55.7,35.3,30.33,NE,40,3.0,6.0,46,0.00,,---,0.00,VWS V14.01,2013-04-22 16:00:00,
2013-04-22 12:04:00,55.9,35.4,30.33,SE,135,3.0,6.0,46,0.00,,---,0.00,VWS V14.01,2013-04-22 16:04:00,
2013-04-22 12:09:00,55.8,34.8,30.33,SSE,166,4.0,9.0,45,0.00,,---,0.00,VWS V14.01,2013-04-22 16:09:00,
2013-04-22 12:14:00,56.3,36.3,30.33,SE,145,5.0,9.0,47,0.00,,---,0.00,VWS V14.01,2013-04-22 16:14:00,
2013-04-22 12:19:00,56.7,34.5,30.33,SE,127,2.0,9.0,43,0.00,,---,0.00,VWS V14.01,2013-04-22 16:19:00,
2013-04-22 12:24:00,57.1,34.2,30.32,ESE,108,1.0,9.0,42,0.00,,---,0.00,VWS V14.01,2013-04-22 16:24:00,
2013-04-22 12:29:00,57.4,33.9,30.32,SSW,208,4.0,9.0,41,0.00,,---,0.00,VWS V14.01,2013-04-22 16:29:00,
2013-04-22 12:30:00,57.4,33.3,30.32,SSE,148,3.0,9.0,40,0.00,,---,0.00,VWS V14.01,2013-04-22 16:30:00,
2013-04-22 12:34:00,57.2,33.1,30.32,ESE,121,1.0,8.0,40,0.00,,---,0.00,VWS V14.01,2013-04-22 16:34:00,
2013-04-22 12:39:00,57.3,33.2,30.32,East,96,2.0,8.0,40,0.00,,---,0.00,VWS V14.01,2013-04-22 16:39:00,
2013-04-22 12:44:00,57.7,32.3,30.31,East,90,3.0,8.0,38,0.00,,---,0.00,VWS V14.01,2013-04-22 16:44:00,
2013-04-22 12:49:00,57.9,31.8,30.31,SE,127,5.0,8.0,37,0.00,,---,0.00,VWS V14.01,2013-04-22 16:49:00,
2013-04-22 12:54:00,58.1,32.0,30.31,SE,133,3.0,8.0,37,0.00,,---,0.00,VWS V14.01,2013-04-22 16:54:00,
2013-04-22 12:59:00,58.6,35.0,30.31,East,101,2.0,8.0,41,0.00,,---,0.00,VWS V14.01,2013-04-22 16:59:00,
2013-04-22 13:00:00,58.9,36.5,30.30,SW,220,0.0,8.0,43,0.00,,---,0.00,VWS V14.01,2013-04-22 17:00:00,
2013-04-22 13:04:00,59.1,32.9,30.30,NE,50,2.0,6.0,37,0.00,,---,0.00,VWS V14.01,2013-04-22 17:04:00,
2013-04-22 13:09:00,59.2,33.6,30.30,SE,143,5.0,9.0,38,0.00,,---,0.00,VWS V14.01,2013-04-22 17:09:00,
2013-04-22 13:14:00,59.1,35.4,30.30,SE,124,5.0,9.0,41,0.00,,---,0.00,VWS V14.01,2013-04-22 17:14:00,
2013-04-22 13:19:00,59.0,32.8,30.30,SE,138,3.0,10.0,37,0.00,,---,0.00,VWS V14.01,2013-04-22 17:19:00,
2013-04-22 13:24:00,59.0,34.1,30.29,SE,143,4.0,10.0,39,0.00,,---,0.00,VWS V14.01,2013-04-22 17:24:00,
2013-04-22 13:29:00,59.3,33.0,30.29,South,181,2.0,10.0,37,0.00,,---,0.00,VWS V14.01,2013-04-22 17:29:00,
2013-04-22 13:30:00,59.3,33.0,30.29,South,186,2.0,10.0,37,0.00,,---,0.00,VWS V14.01,2013-04-22 17:30:00,
2013-04-22 13:34:00,59.6,34.6,30.28,SW,219,3.0,7.0,39,0.00,,---,0.00,VWS V14.01,2013-04-22 17:34:00,
2013-04-22 13:39:00,59.8,33.5,30.28,ENE,64,5.0,7.0,37,0.00,,---,0.00,VWS V14.01,2013-04-22 17:39:00,
2013-04-22 13:44:00,60.0,36.9,30.28,ESE,108,2.0,8.0,42,0.00,,---,0.00,VWS V14.01,2013-04-22 17:44:00,
2013-04-22 13:49:00,59.9,34.2,30.28,South,170,5.0,11.0,38,0.00,,---,0.00,VWS V14.01,2013-04-22 17:49:00,
2013-04-22 13:54:00,60.2,33.2,30.28,East,86,2.0,11.0,36,0.00,,---,0.00,VWS V14.01,2013-04-22 17:54:00,
2013-04-22 13:59:00,60.3,36.5,30.27,NNE,23,2.0,11.0,41,0.00,,---,0.00,VWS V14.01,2013-04-22 17:59:00,
2013-04-22 14:00:00,60.4,36.6,30.27,SSE,150,1.0,11.0,41,0.00,,---,0.00,VWS V14.01,2013-04-22 18:00:00,
2013-04-22 14:04:00,60.5,34.8,30.27,SSE,157,7.0,7.0,38,0.00,,---,0.00,VWS V14.01,2013-04-22 18:04:00,
2013-04-22 14:09:00,60.9,35.8,30.27,ESE,120,5.0,8.0,39,0.00,,---,0.00,VWS V14.01,2013-04-22 18:09:00,
2013-04-22 14:14:00,60.7,36.3,30.27,South,174,3.0,10.0,40,0.00,,---,0.00,VWS V14.01,2013-04-22 18:14:00,
2013-04-22 14:19:00,61.1,35.3,30.26,NNE,22,6.0,10.0,38,0.00,,---,0.00,VWS V14.01,2013-04-22 18:19:00,
2013-04-22 14:24:00,61.1,34.7,30.26,SE,132,3.0,10.0,37,0.00,,---,0.00,VWS V14.01,2013-04-22 18:24:00,
2013-04-22 14:29:00,61.1,34.0,30.26,SW,218,3.0,10.0,36,0.00,,---,0.00,VWS V14.01,2013-04-22 18:29:00,
2013-04-22 14:30:00,61.1,35.3,30.26,SE,129,6.0,10.0,38,0.00,,---,0.00,VWS V14.01,2013-04-22 18:30:00,
2013-04-22 14:34:00,61.1,36.0,30.25,SW,214,3.0,10.0,39,0.00,,---,0.00,VWS V14.01,2013-04-22 18:34:00,
2013-04-22 14:39:00,61.2,35.4,30.25,East,91,1.0,10.0,38,0.00,,---,0.00,VWS V14.01,2013-04-22 18:39:00,
2013-04-22 14:44:00,61.5,35.0,30.25,SSW,203,4.0,10.0,37,0.00,,---,0.00,VWS V14.01,2013-04-22 18:44:00,
2013-04-22 14:49:00,61.8,33.2,30.25,SE,134,3.0,10.0,34,0.00,,---,0.00,VWS V14.01,2013-04-22 18:49:00,
2013-04-22 14:54:00,61.8,34.6,30.25,NE,39,2.0,10.0,36,0.00,,---,0.00,VWS V14.01,2013-04-22 18:54:00,
2013-04-22 14:59:00,62.0,34.1,30.25,SSE,149,5.0,10.0,35,0.00,,---,0.00,VWS V14.01,2013-04-22 18:59:00,
2013-04-22 15:00:00,61.9,32.5,30.25,NW,308,4.0,10.0,33,0.00,,---,0.00,VWS V14.01,2013-04-22 19:00:00,
2013-04-22 15:04:00,61.9,35.4,30.25,ESE,113,5.0,8.0,37,0.00,,---,0.00,VWS V14.01,2013-04-22 19:04:00,
2013-04-22 15:09:00,62.4,34.4,30.25,SE,138,3.0,8.0,35,0.00,,---,0.00,VWS V14.01,2013-04-22 19:09:00,
2013-04-22 15:14:00,62.4,34.4,30.24,SW,218,2.0,8.0,35,0.00,,---,0.00,VWS V14.01,2013-04-22 19:14:00,
2013-04-22 15:19:00,62.3,37.7,30.24,SE,142,1.0,10.0,40,0.00,,---,0.00,VWS V14.01,2013-04-22 19:19:00,
2013-04-22 15:24:00,62.9,34.8,30.24,SE,133,4.0,10.0,35,0.00,,---,0.00,VWS V14.01,2013-04-22 19:24:00,
2013-04-22 15:29:00,63.1,35.0,30.23,NE,55,3.0,10.0,35,0.00,,---,0.00,VWS V14.01,2013-04-22 19:29:00,
2013-04-22 15:30:00,63.1,35.0,30.23,East,84,2.0,10.0,35,0.00,,---,0.00,VWS V14.01,2013-04-22 19:30:00,
2013-04-22 15:34:00,62.8,36.2,30.23,SE,146,5.0,10.0,37,0.00,,---,0.00,VWS V14.01,2013-04-22 19:34:00,
2013-04-22 15:39:00,62.7,34.7,30.23,East,98,2.0,12.0,35,0.00,,---,0.00,VWS V14.01,2013-04-22 19:39:00,
2013-04-22 15:44:00,62.9,36.2,30.23,SE,141,2.0,12.0,37,0.00,,---,0.00,VWS V14.01,2013-04-22 19:44:00,
2013-04-22 15:49:00,63.3,36.6,30.23,SE,131,4.0,12.0,37,0.00,,---,0.00,VWS V14.01,2013-04-22 19:49:00,
2013-04-22 15:54:00,63.5,33.9,30.23,SSE,153,4.0,12.0,33,0.00,,---,0.00,VWS V14.01,2013-04-22 19:54:00,
2013-04-22 15:59:00,63.6,33.2,30.23,South,175,2.0,12.0,32,0.00,,---,0.00,VWS V14.01,2013-04-22 19:59:00,
2013-04-22 16:00:00,63.6,33.2,30.23,SE,142,0.0,12.0,32,0.00,,---,0.00,VWS V14.01,2013-04-22 20:00:00,
2013-04-22 16:05:00,63.8,32.6,30.22,ESE,114,5.0,9.0,31,0.00,,---,0.00,VWS V14.01,2013-04-22 20:05:00,
2013-04-22 16:10:00,63.9,32.7,30.22,SE,145,3.0,9.0,31,0.00,,---,0.00,VWS V14.01,2013-04-22 20:10:00,
2013-04-22 16:15:00,63.7,32.5,30.22,SSE,163,5.0,9.0,31,0.00,,---,0.00,VWS V14.01,2013-04-22 20:15:00,
2013-04-22 16:20:00,63.7,34.1,30.21,SE,130,3.0,9.0,33,0.00,,---,0.00,VWS V14.01,2013-04-22 20:20:00,
2013-04-22 16:25:00,64.3,35.4,30.21,East,84,3.0,9.0,34,0.00,,---,0.00,VWS V14.01,2013-04-22 20:25:00,
2013-04-22 16:30:00,64.3,35.4,30.20,SE,133,5.0,9.0,34,0.00,,---,0.00,VWS V14.01,2013-04-22 20:30:00,
2013-04-22 16:35:00,64.1,32.9,30.20,SW,225,2.0,8.0,31,0.00,,---,0.00,VWS V14.01,2013-04-22 20:35:00,
2013-04-22 16:40:00,64.2,34.5,30.20,SW,214,5.0,8.0,33,0.00,,---,0.00,VWS V14.01,2013-04-22 20:40:00,
2013-04-22 16:45:00,64.5,34.0,30.20,WSW,257,1.0,8.0,32,0.00,,---,0.00,VWS V14.01,2013-04-22 20:45:00,
2013-04-22 16:50:00,64.8,34.3,30.20,SSE,153,8.0,10.0,32,0.00,,---,0.00,VWS V14.01,2013-04-22 20:50:00,
2013-04-22 16:55:00,65.0,35.2,30.20,ESE,104,5.0,10.0,33,0.00,,---,0.00,VWS V14.01,2013-04-22 20:55:00,
2013-04-22 17:00:00,64.9,35.1,30.19,SSW,203,5.0,10.0,33,0.00,,---,0.00,VWS V14.01,2013-04-22 21:00:00,
2013-04-22 17:05:00,65.0,34.5,30.19,SSW,204,1.0,5.0,32,0.00,,---,0.00,VWS V14.01,2013-04-22 21:05:00,
2013-04-22 17:10:00,65.5,34.1,30.19,SE,139,6.0,10.0,31,0.00,,---,0.00,VWS V14.01,2013-04-22 21:10:00,
2013-04-22 17:15:00,65.1,35.3,30.19,SE,131,2.0,10.0,33,0.00,,---,0.00,VWS V14.01,2013-04-22 21:15:00,
2013-04-22 17:20:00,65.2,35.4,30.18,South,188,4.0,10.0,33,0.00,,---,0.00,VWS V14.01,2013-04-22 21:20:00,
2013-04-22 17:25:00,65.3,33.9,30.18,SE,133,3.0,10.0,31,0.00,,---,0.00,VWS V14.01,2013-04-22 21:25:00,
2013-04-22 17:30:00,65.0,33.7,30.18,SE,140,3.0,10.0,31,0.00,,---,0.00,VWS V14.01,2013-04-22 21:30:00,
2013-04-22 17:35:00,65.2,34.6,30.17,ESE,110,2.0,5.0,32,0.00,,---,0.00,VWS V14.01,2013-04-22 21:35:00,
2013-04-22 17:40:00,65.5,34.1,30.17,ENE,77,3.0,7.0,31,0.00,,---,0.00,VWS V14.01,2013-04-22 21:40:00,
2013-04-22 17:45:00,65.4,34.0,30.17,SE,134,6.0,8.0,31,0.00,,---,0.00,VWS V14.01,2013-04-22 21:45:00,
2013-04-22 17:50:00,65.2,34.6,30.17,SE,146,3.0,8.0,32,0.00,,---,0.00,VWS V14.01,2013-04-22 21:50:00,
2013-04-22 17:55:00,65.3,34.7,30.17,SSE,148,1.0,8.0,32,0.00,,---,0.00,VWS V14.01,2013-04-22 21:55:00,
2013-04-22 18:00:00,65.3,34.7,30.17,SE,128,3.0,9.0,32,0.00,,---,0.00,VWS V14.01,2013-04-22 22:00:00,
2013-04-22 18:05:00,65.3,34.7,30.16,SE,142,6.0,9.0,32,0.00,,---,0.00,VWS V14.01,2013-04-22 22:05:00,
2013-04-22 18:10:00,65.0,33.7,30.16,SE,136,8.0,9.0,31,0.00,,---,0.00,VWS V14.01,2013-04-22 22:10:00,
2013-04-22 18:15:00,65.1,33.7,30.16,SSE,149,4.0,9.0,31,0.00,,---,0.00,VWS V14.01,2013-04-22 22:15:00,
2013-04-22 18:20:00,65.2,34.6,30.16,WSW,238,2.0,9.0,32,0.00,,---,0.00,VWS V14.01,2013-04-22 22:20:00,
2013-04-22 18:25:00,65.3,34.7,30.16,SE,134,1.0,9.0,32,0.00,,---,0.00,VWS V14.01,2013-04-22 22:25:00,
2013-04-22 18:30:00,65.4,34.8,30.15,SE,139,3.0,9.0,32,0.00,,---,0.00,VWS V14.01,2013-04-22 22:30:00,
2013-04-22 18:35:00,65.5,34.9,30.15,ESE,117,6.0,7.0,32,0.00,,---,0.00,VWS V14.01,2013-04-22 22:35:00,
2013-04-22 18:40:00,65.2,35.4,30.15,East,96,2.0,11.0,33,0.00,,---,0.00,VWS V14.01,2013-04-22 22:40:00,
2013-04-22 18:45:00,65.1,34.5,30.15,SE,138,3.0,11.0,32,0.00,,---,0.00,VWS V14.01,2013-04-22 22:45:00,
2013-04-22 18:50:00,65.0,35.2,30.15,ESE,122,3.0,11.0,33,0.00,,---,0.00,VWS V14.01,2013-04-22 22:50:00,
2013-04-22 18:55:00,65.1,35.3,30.15,East,90,1.0,11.0,33,0.00,,---,0.00,VWS V14.01,2013-04-22 22:55:00,
2013-04-22 19:00:00,65.0,36.0,30.15,SE,136,3.0,11.0,34,0.00,,---,0.00,VWS V14.01,2013-04-22 23:00:00,
2013-04-22 19:05:00,65.0,36.0,30.15,ESE,120,3.0,5.0,34,0.00,,---,0.00,VWS V14.01,2013-04-22 23:05:00,
2013-04-22 19:10:00,64.8,35.8,30.15,ENE,74,4.0,7.0,34,0.00,,---,0.00,VWS V14.01,2013-04-22 23:10:00,
2013-04-22 19:15:00,64.5,36.3,30.15,SSE,148,1.0,7.0,35,0.00,,---,0.00,VWS V14.01,2013-04-22 23:15:00,
2013-04-22 19:20:00,64.3,36.1,30.15,ESE,102,4.0,7.0,35,0.00,,---,0.00,VWS V14.01,2013-04-22 23:20:00,
2013-04-22 19:25:00,64.1,35.9,30.15,SE,132,1.0,7.0,35,0.00,,---,0.00,VWS V14.01,2013-04-22 23:25:00,
2013-04-22 19:30:00,63.9,37.1,30.15,SE,134,3.0,7.0,37,0.00,,---,0.00,VWS V14.01,2013-04-22 23:30:00,
2013-04-22 19:35:00,63.7,36.3,30.14,East,101,2.0,6.0,36,0.00,,---,0.00,VWS V14.01,2013-04-22 23:35:00,
2013-04-22 19:40:00,63.4,36.0,30.14,SSE,149,2.0,6.0,36,0.00,,---,0.00,VWS V14.01,2013-04-22 23:40:00,
2013-04-22 19:45:00,63.1,37.1,30.14,ESE,105,1.0,6.0,38,0.00,,---,0.00,VWS V14.01,2013-04-22 23:45:00,
2013-04-22 19:50:00,62.7,36.8,30.13,East,101,2.0,6.0,38,0.00,,---,0.00,VWS V14.01,2013-04-22 23:50:00,
2013-04-22 19:55:00,62.3,37.0,30.13,ESE,110,0.0,6.0,39,0.00,,---,0.00,VWS V14.01,2013-04-22 23:55:00,
2013-04-22 20:00:00,61.8,36.6,30.13,SE,133,0.0,1.0,39,0.00,,---,0.00,VWS V14.01,2013-04-23 00:00:00,
2013-04-22 20:05:00,61.5,37.0,30.13,SE,132,1.0,2.0,40,0.00,,---,0.00,VWS V14.01,2013-04-23 00:05:00,
2013-04-22 20:10:00,61.1,36.6,30.13,SE,127,0.0,3.0,40,0.00,,---,0.00,VWS V14.01,2013-04-23 00:10:00,
2013-04-22 20:15:00,60.5,36.7,30.13,SE,125,0.0,3.0,41,0.00,,---,0.00,VWS V14.01,2013-04-23 00:15:00,
2013-04-22 20:20:00,59.9,36.8,30.13,ESE,121,0.0,3.0,42,0.00,,---,0.00,VWS V14.01,2013-04-23 00:20:00,
2013-04-22 20:25:00,59.3,35.6,30.13,ESE,120,0.0,3.0,41,0.00,,---,0.00,VWS V14.01,2013-04-23 00:25:00,
2013-04-22 20:30:00,58.8,35.8,30.13,ESE,122,0.0,0.0,42,0.00,,---,0.00,VWS V14.01,2013-04-23 00:30:00,
2013-04-22 20:35:00,58.3,36.5,30.13,ESE,121,0.0,1.0,44,0.00,,---,0.00,VWS V14.01,2013-04-23 00:35:00,
2013-04-22 20:40:00,57.8,36.6,30.13,ESE,121,0.0,1.0,45,0.00,,---,0.00,VWS V14.01,2013-04-23 00:40:00,
2013-04-22 20:45:00,57.3,36.7,30.13,ESE,121,0.0,1.0,46,0.00,,---,0.00,VWS V14.01,2013-04-23 00:45:00,
2013-04-22 20:50:00,56.8,36.3,30.13,ESE,121,0.0,1.0,46,0.00,,---,0.00,VWS V14.01,2013-04-23 00:50:00,
2013-04-22 20:56:00,56.4,36.4,30.14,ESE,122,0.0,1.0,47,0.00,,---,0.00,VWS V14.01,2013-04-23 00:56:00,
2013-04-22 21:00:00,56.0,36.6,30.14,SE,135,0.0,1.0,48,0.00,,---,0.00,VWS V14.01,2013-04-23 01:00:00,
2013-04-22 21:01:00,56.0,36.6,30.14,SE,135,0.0,0.0,48,0.00,,---,0.00,VWS V14.01,2013-04-23 01:01:00,
2013-04-22 21:06:00,55.6,36.8,30.14,SE,135,0.0,1.0,49,0.00,,---,0.00,VWS V14.01,2013-04-23 01:06:00,
2013-04-22 21:11:00,55.1,36.3,30.14,SE,135,0.0,1.0,49,0.00,,---,0.00,VWS V14.01,2013-04-23 01:11:00,
2013-04-22 21:16:00,54.7,36.4,30.14,SE,129,0.0,1.0,50,0.00,,---,0.00,VWS V14.01,2013-04-23 01:16:00,
2013-04-22 21:21:00,54.5,36.8,30.14,SE,129,0.0,1.0,51,0.00,,---,0.00,VWS V14.01,2013-04-23 01:21:00,
2013-04-22 21:26:00,54.2,37.0,30.14,SE,129,0.0,1.0,52,0.00,,---,0.00,VWS V14.01,2013-04-23 01:26:00,
2013-04-22 21:30:00,53.6,36.4,30.14,SE,131,0.0,1.0,52,0.00,,---,0.00,VWS V14.01,2013-04-23 01:30:00,
2013-04-22 21:31:00,53.6,36.4,30.14,SE,129,0.0,0.0,52,0.00,,---,0.00,VWS V14.01,2013-04-23 01:31:00,
2013-04-22 21:36:00,53.2,37.5,30.15,SE,131,0.0,0.0,55,0.00,,---,0.00,VWS V14.01,2013-04-23 01:36:00,
2013-04-22 21:41:00,53.1,36.9,30.15,SE,131,0.0,0.0,54,0.00,,---,0.00,VWS V14.01,2013-04-23 01:41:00,
2013-04-22 21:46:00,52.5,36.3,30.15,SE,131,0.0,0.0,54,0.00,,---,0.00,VWS V14.01,2013-04-23 01:46:00,
2013-04-22 21:51:00,52.2,36.5,30.15,SE,131,0.0,0.0,55,0.00,,---,0.00,VWS V14.01,2013-04-23 01:51:00,
2013-04-22 21:56:00,52.3,37.1,30.15,SE,131,0.0,0.0,56,0.00,,---,0.00,VWS V14.01,2013-04-23 01:56:00,
2013-04-22 22:00:00,52.6,36.4,30.15,SE,131,0.0,1.0,54,0.00,,---,0.00,VWS V14.01,2013-04-23 02:00:00,
2013-04-22 22:01:00,52.6,36.5,30.15,SE,131,0.0,0.0,54,0.00,,---,0.00,VWS V14.01,2013-04-23 02:01:00,
2013-04-22 22:06:00,52.8,35.7,30.15,SE,131,0.0,1.0,52,0.00,,---,0.00,VWS V14.01,2013-04-23 02:06:00,
2013-04-22 22:11:00,52.8,36.2,30.15,East,84,0.0,1.0,53,0.00,,---,0.00,VWS V14.01,2013-04-23 02:11:00,
2013-04-22 22:16:00,52.9,36.7,30.15,East,94,1.0,3.0,54,0.00,,---,0.00,VWS V14.01,2013-04-23 02:16:00,
2013-04-22 22:21:00,52.9,37.2,30.15,ESE,120,3.0,5.0,55,0.00,,---,0.00,VWS V14.01,2013-04-23 02:21:00,
2013-04-22 22:26:00,52.7,37.5,30.15,SE,142,0.0,5.0,56,0.00,,---,0.00,VWS V14.01,2013-04-23 02:26:00,
2013-04-22 22:30:00,52.5,38.2,30.15,East,94,0.0,5.0,58,0.00,,---,0.00,VWS V14.01,2013-04-23 02:30:00,
2013-04-22 22:31:00,52.4,38.1,30.15,East,94,0.0,1.0,58,0.00,,---,0.00,VWS V14.01,2013-04-23 02:31:00,
2013-04-22 22:36:00,52.1,37.8,30.15,East,98,3.0,5.0,58,0.00,,---,0.00,VWS V14.01,2013-04-23 02:36:00,
2013-04-22 22:41:00,52.0,37.7,30.15,ENE,58,2.0,8.0,58,0.00,,---,0.00,VWS V14.01,2013-04-23 02:41:00,
2013-04-22 22:46:00,51.8,37.5,30.15,SE,138,0.0,8.0,58,0.00,,---,0.00,VWS V14.01,2013-04-23 02:46:00,
2013-04-22 22:51:00,51.5,37.7,30.15,NE,54,2.0,8.0,59,0.00,,---,0.00,VWS V14.01,2013-04-23 02:51:00,
2013-04-22 22:56:00,51.2,37.4,30.15,East,84,0.0,8.0,59,0.00,,---,0.00,VWS V14.01,2013-04-23 02:56:00,
2013-04-22 23:00:00,50.9,37.5,30.15,ENE,73,1.0,8.0,60,0.00,,---,0.00,VWS V14.01,2013-04-23 03:00:00,
2013-04-22 23:01:00,50.9,37.5,30.15,ESE,119,1.0,2.0,60,0.00,,---,0.00,VWS V14.01,2013-04-23 03:01:00,
2013-04-22 23:06:00,50.5,37.6,30.15,East,82,1.0,2.0,61,0.00,,---,0.00,VWS V14.01,2013-04-23 03:06:00,
2013-04-22 23:11:00,50.2,37.7,30.15,ESE,108,0.0,3.0,62,0.00,,---,0.00,VWS V14.01,2013-04-23 03:11:00,
2013-04-22 23:16:00,50.0,37.5,30.14,NE,51,2.0,5.0,62,0.00,,---,0.00,VWS V14.01,2013-04-23 03:16:00,
2013-04-22 23:21:00,49.8,37.7,30.14,ENE,77,0.0,5.0,63,0.00,,---,0.00,VWS V14.01,2013-04-23 03:21:00,
2013-04-22 23:26:00,49.7,37.6,30.14,East,101,1.0,5.0,63,0.00,,---,0.00,VWS V14.01,2013-04-23 03:26:00,
2013-04-22 23:30:00,49.5,37.8,30.14,SSW,193,1.0,5.0,64,0.00,,---,0.00,VWS V14.01,2013-04-23 03:30:00,
2013-04-22 23:31:00,49.5,37.8,30.14,NE,40,0.0,1.0,64,0.00,,---,0.00,VWS V14.01,2013-04-23 03:31:00,
2013-04-22 23:36:00,49.3,37.7,30.14,ENE,75,1.0,4.0,64,0.00,,---,0.00,VWS V14.01,2013-04-23 03:36:00,
2013-04-22 23:41:00,49.1,37.9,30.14,East,89,1.0,7.0,65,0.00,,---,0.00,VWS V14.01,2013-04-23 03:41:00,
2013-04-22 23:46:00,49.0,37.8,30.14,SE,141,0.0,7.0,65,0.00,,---,0.00,VWS V14.01,2013-04-23 03:46:00,
2013-04-22 23:51:00,48.7,37.9,30.14,SE,126,1.0,7.0,66,0.00,,---,0.00,VWS V14.01,2013-04-23 03:51:00,
2013-04-22 23:56:00,48.4,38.0,30.14,ENE,67,0.0,7.0,67,0.00,,---,0.00,VWS V14.01,2013-04-23 03:56:00,